Snowfall_Accumulation
nan nan nan nan nan nan nan nan nan nan nan nan nan nan nan nan nan 0.0 0.0 0.0 0.1 2.4 0.6 0.0 0.0 0.0 0.1 0.0 1.7 0.4 2.5 1.8 2.0 2.6 5.2 7.7 7.4 2.8 1.1 0.6 0.4 1.5 4.1 7.4 4.9 9.8 6.2 0.0 0.0 0.2 0.3 0.0 0.0 0.0
nan nan nan nan nan nan nan nan nan nan nan nan nan nan nan nan nan nan 0.0 0.0 0.0 0.4 0.7 0.0 0.0 0.0 0.0 0.0 0.0 0.0 0.2 0.1 0.4 1.9 2.8 3.8 4.0 2.0 1.1 4.4 0.5 1.4 0.4 2.2 0.7 2.3 0.0 0.0 0.0 0.0 0.0 0.0 0.0 0.0
nan nan nan nan nan nan nan nan nan nan nan nan nan nan nan nan nan nan 0.0 0.0 0.0 1.7 0.9 0.2 0.0 0.0 0.0 0.0 0.0 0.6 0.0 0.0 0.0 0.0 1.3 1.0 1.2 0.7 1.8 0.8 0.4 0.1 0.0 0.8 0.1 0.0 0.0 0.0 0.0 0.0 0.0 0.0 0.0 0.0
nan nan nan nan nan nan nan nan nan nan nan nan nan nan nan nan nan nan 0.0 0.0 0.0 0.0 8.1 3.4 0.0 0.0 0.0 0.0 0.0 0.0 0.0 0.0 0.0 0.0 1.1 2.6 2.9 0.1 1.1 0.4 0.5 0.2 0.0 0.1 0.1 0.0 0.0 0.0 0.0 0.0 0.0 0.0 0.0 0.0
nan nan nan nan nan nan nan nan nan nan nan nan nan nan nan nan nan nan 0.0 0.0 0.0 0.2 3.8 4.1 0.0 0.0 0.0 0.0 0.0 0.0 0.0 0.0 0.0 0.2 1.5 2.5 1.2 1.8 1.2 0.7 1.0 0.0 0.1 1.1 0.7 0.0 0.0 0.0 0.0 0.0 0.0 0.0 0.0 0.0
nan nan nan nan nan nan nan nan nan nan nan nan nan nan nan nan nan 0.0 6.3 0.0 0.0 0.0 1.9 8.2 1.5 0.2 0.0 0.0 0.0 0.0 0.0 0.0 0.0 0.7 1.0 0.4 0.0 0.2 2.3 1.3 0.0 0.0 0.0 0.0 0.0 0.0 0.0 0.0 0.0 0.0 0.0 0.0 0.0 0.0
nan nan nan nan nan nan nan nan nan nan nan nan nan nan nan nan 0.0 0.3 0.7 0.0 nan 0.0 0.8 4.5 4.7 0.2 0.0 0.0 0.1 0.7 0.1 2.2 2.3 2.4 2.4 0.7 0.2 0.3 1.8 1.2 0.0 0.0 0.0 0.0 0.0 0.0 0.0 0.0 0.0 0.0 0.0 0.0 0.0 0.0
nan nan nan nan nan nan nan nan nan nan nan nan nan nan nan nan nan 0.1 0.0 nan nan 0.0 0.3 4.2 5.4 2.5 0.0 2.7 5.0 0.6 2.7 1.7 2.1 3.2 2.1 1.3 0.9 1.4 3.0 0.0 0.0 0.0 0.0 0.0 0.0 0.0 0.0 0.0 0.0 0.0 0.0 0.0 0.0 0.0
nan nan nan nan nan nan nan nan nan nan nan nan nan nan 0.1 0.3 0.6 0.1 nan nan 0.0 0.3 1.7 1.0 1.5 9.1 0.3 1.4 1.1 1.5 0.6 4.8 0.6 1.6 1.3 0.8 2.4 3.5 0.2 0.0 0.0 0.0 0.0 0.0 0.0 0.0 0.0 0.0 0.0 0.0 0.0 0.0 0.0 0.0
nan nan nan nan nan nan nan nan nan nan nan nan 0.0 0.5 15.8 0.8 nan nan 0.1 1.4 0.5 0.1 0.2 2.5 0.2 1.6 1.0 1.3 1.7 2.0 1.3 2.3 3.3 2.3 0.5 1.6 0.4 0.0 0.0 0.0 0.0 0.0 0.0 0.0 0.0 0.1 0.0 0.0 0.0 0.0 0.0 0.0 0.1 0.1
nan nan nan nan nan nan nan nan nan nan nan 0.1 1.3 3.8 0.1 nan 0.0 0.7 5.6 2.1 1.0 0.6 0.3 1.7 1.7 1.5 0.1 1.4 1.9 0.5 2.5 0.9 2.3 1.5 1.2 1.4 1.1 1.1 0.0 0.1 0.0 0.0 0.0 0.0 0.0 0.0 0.0 0.0 0.0 0.0 0.0 0.1 0.2 0.1
nan nan nan nan nan nan nan nan nan 0.0 0.0 0.0 0.1 0.0 0.0 0.7 1.6 0.5 2.5 1.0 0.2 0.5 0.3 0.9 1.0 0.8 0.4 0.1 0.8 1.2 1.0 0.7 1.4 1.0 3.5 1.6 3.4 0.1 0.0 0.1 0.1 0.0 0.0 0.1 0.0 0.5 0.1 0.1 0.1 0.2 0.3 0.1 0.1 0.3
nan nan nan nan nan nan nan nan nan nan nan 0.0 0.1 0.1 0.8 2.4 25.7 1.5 3.6 1.2 3.0 0.5 0.5 0.2 1.4 0.2 0.2 0.0 0.6 0.6 1.9 2.4 0.2 5.4 0.5 1.2 0.5 0.1 0.0 0.1 0.1 0.2 0.3 0.5 0.4 0.3 0.8 0.3 0.1 0.1 0.2 1.4 1.4 1.8
nan nan nan nan nan nan nan nan nan 0.0 0.0 0.3 0.2 28.1 2.2 2.3 0.9 0.9 0.8 0.7 0.3 0.3 0.2 0.1 0.7 0.5 0.4 0.6 0.7 1.4 0.6 0.5 4.6 3.1 2.0 1.3 0.2 0.1 0.0 0.0 0.0 0.1 0.1 0.1 0.1 0.2 0.9 1.9 4.0 3.5 4.1 4.4 4.5 4.9
nan nan nan nan nan nan nan nan nan 0.0 0.0 0.4 0.3 12.8 3.7 0.5 0.7 0.8 0.6 0.6 0.4 0.2 0.2 0.4 0.3 0.4 1.0 2.5 0.5 0.3 2.3 2.7 1.1 3.9 0.9 0.4 0.0 0.0 0.0 0.0 0.1 0.4 1.7 0.8 0.3 1.2 2.8 2.7 3.2 2.6 4.1 3.2 1.6 4.6
nan nan 0.0 nan nan nan nan nan 0.0 0.0 0.2 0.2 0.1 0.9 0.7 2.6 6.9 4.6 2.0 1.3 0.2 0.5 0.2 0.4 0.4 1.5 1.6 0.8 0.3 0.9 0.3 0.8 2.2 1.1 0.8 0.5 0.1 0.1 0.1 0.1 0.1 0.2 0.2 0.5 0.5 0.5 1.2 2.7 2.2 1.5 1.9 2.5 5.3 3.9
nan 0.0 nan nan nan nan nan 0.0 0.1 0.0 0.3 0.0 6.4 4.0 2.3 1.9 7.9 4.3 0.9 0.4 0.1 0.8 1.7 0.5 1.1 0.1 0.2 1.2 0.2 0.3 2.0 1.1 1.6 1.2 0.6 0.1 0.1 0.2 0.3 0.2 0.8 0.2 0.2 0.4 0.5 0.5 0.8 1.4 1.2 0.3 0.5 0.6 0.2 0.3
0.0 0.0 nan nan nan nan 0.1 0.1 0.4 0.6 0.1 0.8 5.7 5.7 1.4 1.4 4.0 2.0 0.6 0.2 0.2 0.2 0.2 0.2 0.2 0.4 2.7 0.7 1.5 0.9 0.8 2.0 1.0 0.9 0.7 0.3 0.1 0.1 0.0 0.1 0.1 0.1 0.1 0.5 0.3 0.4 0.4 0.3 0.2 0.8 0.1 0.1 0.2 0.2
0.0 0.0 nan nan 0.0 0.0 0.2 0.1 0.1 0.6 2.8 1.2 1.0 0.7 0.9 2.2 0.6 0.4 0.7 0.2 0.0 0.0 0.4 0.9 0.3 1.2 1.4 1.0 1.5 2.5 2.2 1.0 1.5 0.9 0.7 0.1 0.1 0.1 0.1 0.1 0.1 0.1 0.2 0.1 0.0 0.4 0.3 0.0 0.2 0.2 0.3 0.3 0.7 0.6
nan nan nan nan nan 0.0 0.0 0.3 0.0 0.3 1.1 0.9 0.4 0.6 0.5 1.2 0.6 1.3 1.0 1.5 0.3 0.4 1.2 1.6 2.5 1.5 1.2 0.6 0.4 0.5 0.4 0.4 0.4 1.0 1.0 0.7 0.5 0.0 0.1 0.2 0.5 0.2 0.3 0.1 0.3 0.1 0.3 0.3 0.3 0.3 0.4 0.4 1.3 2.3
nan nan nan 0.0 0.0 0.0 0.1 0.2 0.1 0.1 0.9 0.3 0.4 0.3 0.8 0.6 1.2 2.3 1.4 0.5 4.3 2.9 1.7 0.9 1.0 2.0 0.4 1.1 0.6 0.4 0.4 0.2 0.5 0.4 0.4 0.9 0.6 0.3 0.3 0.4 0.4 0.4 0.4 0.5 1.0 0.9 0.4 0.7 0.5 0.4 4.0 7.1 4.1 3.0
0.1 nan 0.1 0.0 0.3 0.1 0.3 0.0 0.1 0.1 0.3 0.7 0.6 0.8 1.3 4.7 4.1 2.1 0.7 2.1 1.4 1.4 1.0 0.8 0.8 0.7 0.7 0.4 0.5 0.3 0.1 0.1 0.1 0.3 0.1 0.2 0.8 0.8 0.8 0.8 0.8 1.3 0.9 1.1 0.8 1.8 1.1 0.6 0.7 0.9 3.8 8.6 2.3 3.1
nan 0.1 0.3 0.3 2.7 4.3 10.2 0.1 0.0 0.1 0.9 0.8 0.4 0.7 1.6 1.7 1.5 0.4 3.1 1.1 1.9 1.0 1.0 0.8 0.3 0.1 0.4 0.0 0.0 0.0 0.0 0.0 0.2 0.3 0.5 0.4 0.3 1.1 0.5 0.7 0.6 2.1 1.9 0.9 0.4 0.8 1.3 0.6 1.3 5.9 4.1 5.2 9.1 15.3
nan 0.5 4.2 2.0 2.5 12.8 0.9 3.2 0.1 0.3 0.3 0.9 1.1 1.5 0.5 1.0 1.3 3.7 3.8 1.3 1.9 1.0 0.9 0.4 0.8 0.7 0.5 0.1 0.3 0.3 0.3 0.2 0.3 0.7 0.6 0.4 0.6 0.7 0.4 0.4 0.5 0.5 0.6 0.4 0.6 1.2 1.4 5.2 4.2 3.1 9.4 17.6 21.6 20.6
12.4 20.3 7.3 34.2 1.2 7.0 2.9 1.0 0.9 0.9 3.0 2.1 1.8 1.7 6.5 1.1 4.9 3.5 1.1 3.2 2.4 2.8 1.7 1.4 1.2 1.6 2.4 2.0 1.3 1.1 0.2 0.3 0.6 0.8 1.6 0.4 0.6 0.7 1.1 0.7 1.3 0.8 0.7 3.5 6.6 8.0 8.7 9.5 10.5 10.5 6.8 19.9 10.8 8.9
36.4 11.1 23.6 3.3 9.0 4.3 2.6 6.7 6.5 5.2 3.1 4.4 3.1 1.6 1.3 5.3 5.8 7.2 3.0 7.0 5.2 8.8 11.0 9.0 5.0 1.6 1.5 1.4 2.0 1.9 1.4 0.5 0.4 1.3 0.7 0.3 0.4 3.3 3.8 3.7 3.2 3.5 1.3 2.3 5.2 11.3 8.8 8.7 13.7 7.6 12.7 7.2 7.6 15.2
32.7 16.8 1.4 0.5 1.6 1.4 7.2 6.1 1.5 4.8 6.6 9.0 3.7 5.8 5.6 14.7 8.6 4.4 4.2 2.4 2.4 4.7 1.6 1.3 1.5 1.2 1.3 1.4 1.3 1.2 0.9 1.1 1.4 1.8 1.1 0.8 0.9 0.7 1.9 5.3 3.3 2.5 1.8 2.8 4.3 10.7 12.6 13.6 15.3 11.2 13.9 13.9 13.3 16.6
5.7 2.7 15.9 8.2 7.2 3.1 8.3 5.8 6.8 9.2 5.0 2.2 4.3 10.3 10.4 9.3 9.4 4.6 3.4 2.4 2.6 1.3 1.4 1.2 0.8 0.7 1.4 1.6 2.1 2.3 2.7 2.7 3.5 2.5 2.5 2.7 2.5 3.2 3.1 3.4 3.0 4.9 3.5 7.2 8.5 10.2 8.4 13.3 16.6 17.0 15.7 16.5 18.3 16.9
5.7 3.4 3.0 13.4 6.2 7.4 8.2 10.2 9.5 3.5 0.8 2.5 13.9 8.7 4.0 1.9 5.2 7.2 4.2 2.2 2.0 2.8 7.5 7.3 7.2 7.3 5.9 3.6 4.5 6.0 4.4 6.1 5.5 7.6 9.7 11.6 10.7 9.7 4.5 5.6 6.5 8.5 7.4 13.4 5.6 6.2 7.2 10.4 12.4 14.1 14.7 19.2 18.4 20.1
4.3 2.9 5.2 6.6 10.2 9.1 12.2 9.6 10.0 6.6 1.6 3.0 2.7 2.5 2.5 5.6 8.2 2.9 3.9 6.0 8.6 18.0 22.4 17.8 17.0 18.8 24.2 17.7 16.4 11.2 11.9 13.4 10.2 11.5 17.8 14.0 10.4 9.4 10.6 14.1 13.4 13.1 11.8 20.3 13.8 7.5 8.6 13.7 14.0 22.0 21.2 21.6 20.5 23.6
1.9 7.2 7.1 4.0 7.6 12.5 12.9 14.2 13.4 7.9 10.3 18.5 15.1 18.3 12.5 10.2 10.4 4.3 5.6 9.2 12.3 26.9 28.6 31.6 30.7 27.3 25.5 18.5 26.1 24.0 20.4 23.3 11.0 8.0 7.7 12.0 12.5 17.4 17.2 15.2 15.5 20.7 17.3 17.0 23.0 19.0 16.4 21.6 23.6 20.6 16.6 15.5 16.2 16.7
11.1 17.7 19.1 12.8 13.0 20.0 9.1 25.9 21.1 22.4 23.8 26.1 29.2 26.0 27.8 24.4 15.5 12.0 11.5 22.2 26.8 29.3 8.8 19.9 30.3 18.8 15.3 13.4 15.8 16.0 9.2 12.1 12.8 12.4 10.1 15.2 18.6 21.3 13.1 11.4 22.4 22.9 19.8 21.6 18.9 20.2 15.9 20.4 20.2 20.6 21.5 17.9 16.8 15.9
24.7 16.7 12.2 13.6 22.9 12.0 15.5 18.7 5.3 20.1 21.4 25.0 27.5 23.4 25.0 20.3 13.2 16.0 7.3 17.1 23.7 25.0 22.3 26.2 27.7 30.8 19.0 13.8 14.0 14.9 10.2 13.9 13.1 10.4 9.2 9.2 9.0 9.9 16.9 21.5 25.3 20.7 13.7 19.1 20.1 18.7 15.8 12.8 17.7 16.3 17.7 20.1 18.3 16.8
Water_Equivalent
nan nan nan nan nan nan nan nan nan nan nan nan nan nan nan nan nan 0.00 0.00 0.00 0.05 0.67 0.14 0.00 0.00 0.01 0.01 0.00 0.33 0.10 0.46 0.38 0.56 0.55 0.98 1.31 1.14 0.50 0.18 0.09 0.06 0.30 0.76 1.21 0.73 1.34 0.67 0.00 0.00 0.04 0.07 0.00 0.00 0.00
nan nan nan nan nan nan nan nan nan nan nan nan nan nan nan nan nan nan 0.00 0.00 0.00 0.14 0.16 0.00 0.00 0.00 0.00 0.00 0.00 0.00 0.05 0.02 0.11 0.44 0.52 0.64 0.68 0.38 0.18 0.72 0.08 0.26 0.09 0.39 0.15 0.45 0.00 0.00 0.00 0.00 0.00 0.00 0.00 0.00
nan nan nan nan nan nan nan nan nan nan nan nan nan nan nan nan nan nan 0.00 0.00 0.01 0.63 0.23 0.04 0.00 0.00 0.00 0.00 0.00 0.14 0.00 0.00 0.00 0.00 0.31 0.25 0.18 0.13 0.33 0.15 0.06 0.02 0.00 0.17 0.03 0.00 0.00 0.00 0.00 0.00 0.00 0.00 0.00 0.00
nan nan nan nan nan nan nan nan nan nan nan nan nan nan nan nan nan nan 0.00 0.00 0.00 0.01 1.53 0.77 0.00 0.00 0.00 0.00 0.00 0.00 0.00 0.00 0.00 0.00 0.27 0.53 0.54 0.03 0.22 0.09 0.09 0.05 0.01 0.02 0.02 0.00 0.00 0.00 0.00 0.00 0.00 0.00 0.00 0.00
nan nan nan nan nan nan nan nan nan nan nan nan nan nan nan nan nan nan 0.00 0.00 0.00 0.04 0.69 0.89 0.00 0.00 0.00 0.00 0.00 0.00 0.00 0.00 0.02 0.07 0.33 0.44 0.23 0.34 0.22 0.12 0.17 0.01 0.01 0.22 0.18 0.00 0.00 0.00 0.00 0.00 0.00 0.00 0.00 0.00
nan nan nan nan nan nan nan nan nan nan nan nan nan nan nan nan nan 0.00 2.28 0.00 0.00 0.00 0.46 1.28 0.36 0.06 0.00 0.00 0.00 0.00 0.00 0.00 0.00 0.18 0.20 0.07 0.00 0.05 0.56 0.22 0.00 0.00 0.00 0.00 0.01 0.00 0.00 0.00 0.00 0.00 0.00 0.00 0.00 0.00
nan nan nan nan nan nan nan nan nan nan nan nan nan nan nan nan 0.00 0.12 0.16 0.00 nan 0.00 0.22 0.91 0.77 0.05 0.01 0.00 0.04 0.20 0.03 0.56 0.52 0.48 0.44 0.11 0.03 0.07 0.36 0.26 0.00 0.00 0.00 0.00 0.00 0.00 0.01 0.00 0.02 0.00 0.00 0.00 0.00 0.00
nan nan nan nan nan nan nan nan nan nan nan nan nan nan nan nan nan 0.04 0.00 nan nan 0.01 0.09 0.84 0.85 0.54 0.00 0.51 0.85 0.12 0.48 0.33 0.45 0.56 0.39 0.23 0.16 0.26 0.61 0.00 0.00 0.00 0.00 0.00 0.00 0.00 0.00 0.00 0.00 0.00 0.00 0.00 0.00 0.00
nan nan nan nan nan nan nan nan nan nan nan nan nan nan 0.04 0.11 0.23 0.03 nan nan 0.00 0.07 0.36 0.21 0.29 1.66 0.09 0.35 0.26 0.36 0.14 0.93 0.11 0.32 0.24 0.16 0.41 0.61 0.07 0.00 0.00 0.00 0.01 0.00 0.00 0.00 0.00 0.00 0.00 0.00 0.00 0.00 0.00 0.00
nan nan nan nan nan nan nan nan nan nan nan nan 0.00 0.17 4.53 0.29 nan nan 0.02 0.47 0.19 0.04 0.06 0.40 0.03 0.27 0.18 0.29 0.37 0.44 0.26 0.39 0.53 0.38 0.09 0.31 0.11 0.00 0.00 0.00 0.00 0.00 0.00 0.00 0.00 0.01 0.00 0.00 0.00 0.00 0.00 0.00 0.02 0.02
nan nan nan nan nan nan nan nan nan nan nan 0.02 0.39 1.24 0.04 nan 0.01 0.21 1.31 0.48 0.25 0.15 0.04 0.31 0.28 0.27 0.01 0.31 0.41 0.13 0.55 0.22 0.42 0.25 0.25 0.27 0.22 0.23 0.01 0.01 0.00 0.00 0.00 0.00 0.00 0.00 0.00 0.01 0.00 0.00 0.01 0.03 0.06 0.02
nan nan nan nan nan nan nan nan nan 0.00 0.00 0.00 0.05 0.00 0.00 0.19 0.41 0.10 0.59 0.25 0.05 0.08 0.07 0.15 0.18 0.14 0.09 0.02 0.21 0.29 0.23 0.21 0.24 0.22 0.87 0.38 0.78 0.02 0.01 0.02 0.02 0.00 0.01 0.02 0.00 0.12 0.03 0.02 0.01 0.05 0.07 0.03 0.02 0.07
nan nan nan nan nan nan nan nan nan nan nan 0.00 0.03 0.03 0.19 0.62 4.50 0.36 1.00 0.34 1.10 0.11 0.13 0.07 0.49 0.06 0.08 0.00 0.19 0.17 0.53 0.68 0.05 1.64 0.14 0.25 0.12 0.03 0.01 0.02 0.03 0.04 0.06 0.12 0.08 0.07 0.17 0.06 0.02 0.02 0.05 0.33 0.34 0.40
nan nan nan nan nan nan nan nan nan 0.00 0.00 0.10 0.07 4.80 0.71 0.86 0.26 0.26 0.21 0.24 0.11 0.10 0.06 0.04 0.19 0.16 0.14 0.19 0.28 0.44 0.23 0.14 1.25 0.66 0.41 0.28 0.04 0.02 0.00 0.01 0.00 0.01 0.02 0.02 0.02 0.07 0.24 0.46 0.96 0.88 1.04 1.11 1.02 1.03
nan nan nan nan nan nan nan nan nan 0.00 0.01 0.14 0.10 2.64 0.94 0.19 0.28 0.31 0.22 0.23 0.14 0.07 0.06 0.12 0.10 0.10 0.30 0.76 0.16 0.10 0.74 0.85 0.33 0.86 0.26 0.14 0.00 0.00 0.01 0.01 0.02 0.10 0.43 0.21 0.08 0.28 0.65 0.61 0.72 0.54 0.90 0.70 0.35 0.90
nan nan 0.00 nan nan nan nan nan 0.00 0.00 0.07 0.07 0.03 0.27 0.29 0.90 2.54 1.83 0.82 0.49 0.06 0.14 0.08 0.12 0.12 0.43 0.48 0.25 0.08 0.32 0.09 0.23 0.50 0.34 0.26 0.17 0.02 0.03 0.02 0.02 0.04 0.06 0.04 0.12 0.12 0.13 0.27 0.58 0.48 0.32 0.38 0.50 1.09 0.84
nan 0.00 nan nan nan nan nan 0.00 0.05 0.01 0.13 0.00 2.07 1.59 0.89 0.73 2.46 1.57 0.34 0.15 0.04 0.19 0.64 0.14 0.25 0.02 0.08 0.32 0.04 0.10 0.61 0.33 0.54 0.36 0.19 0.02 0.03 0.05 0.08 0.08 0.22 0.05 0.06 0.09 0.13 0.11 0.18 0.32 0.27 0.07 0.10 0.12 0.05 0.07
0.00 0.00 nan nan nan nan 0.06 0.05 0.14 0.18 0.02 0.26 1.71 1.95 0.52 0.53 1.61 0.71 0.24 0.09 0.07 0.07 0.08 0.07 0.07 0.09 0.83 0.16 0.42 0.25 0.25 0.64 0.33 0.30 0.23 0.10 0.02 0.04 0.01 0.02 0.03 0.03 0.04 0.11 0.08 0.08 0.09 0.07 0.04 0.20 0.03 0.02 0.05 0.04
0.00 0.00 nan nan 0.00 0.02 0.10 0.05 0.03 0.17 0.71 0.41 0.36 0.25 0.32 0.85 0.25 0.17 0.24 0.08 0.01 0.00 0.11 0.27 0.06 0.29 0.35 0.22 0.49 0.83 0.67 0.29 0.39 0.27 0.21 0.03 0.02 0.03 0.03 0.02 0.03 0.04 0.04 0.02 0.01 0.12 0.10 0.00 0.05 0.08 0.09 0.09 0.19 0.17
nan nan nan nan nan 0.01 0.00 0.09 0.00 0.07 0.28 0.29 0.16 0.21 0.20 0.41 0.22 0.52 0.35 0.39 0.08 0.14 0.29 0.39 0.60 0.33 0.29 0.18 0.13 0.15 0.14 0.15 0.13 0.26 0.27 0.20 0.16 0.01 0.02 0.05 0.16 0.05 0.10 0.02 0.09 0.03 0.09 0.08 0.08 0.10 0.12 0.12 0.34 0.55
nan nan nan 0.00 0.00 0.00 0.02 0.06 0.03 0.05 0.23 0.11 0.15 0.13 0.27 0.22 0.36 0.71 0.47 0.14 0.91 0.58 0.35 0.21 0.27 0.52 0.08 0.26 0.16 0.11 0.10 0.07 0.15 0.15 0.14 0.23 0.18 0.10 0.10 0.13 0.14 0.14 0.13 0.15 0.31 0.25 0.12 0.20 0.14 0.12 1.23 2.06 1.18 0.88
0.02 nan 0.05 0.00 0.06 0.04 0.11 0.00 0.04 0.04 0.09 0.18 0.16 0.18 0.40 1.52 1.32 0.63 0.18 0.52 0.33 0.34 0.23 0.20 0.19 0.16 0.17 0.08 0.12 0.06 0.02 0.01 0.02 0.11 0.04 0.06 0.23 0.22 0.24 0.25 0.24 0.34 0.27 0.36 0.26 0.55 0.32 0.16 0.20 0.28 1.03 2.19 0.64 0.78
nan 0.02 0.08 0.07 0.49 0.90 2.07 0.04 0.01 0.02 0.23 0.23 0.13 0.19 0.50 0.55 0.39 0.10 0.76 0.25 0.47 0.26 0.23 0.17 0.06 0.02 0.09 0.01 0.00 0.00 0.00 0.00 0.07 0.10 0.16 0.13 0.11 0.41 0.18 0.21 0.22 0.62 0.54 0.23 0.13 0.25 0.38 0.20 0.37 1.62 1.12 1.27 2.15 3.28
nan 0.07 1.19 0.63 0.54 2.76 0.22 1.04 0.05 0.09 0.10 0.24 0.28 0.33 0.11 0.31 0.28 0.74 0.75 0.27 0.42 0.23 0.20 0.07 0.19 0.17 0.14 0.02 0.10 0.09 0.09 0.07 0.11 0.24 0.20 0.13 0.18 0.19 0.12 0.15 0.18 0.19 0.22 0.13 0.21 0.37 0.42 1.59 1.35 0.79 2.24 4.35 5.35 4.39
1.79 3.34 1.99 4.16 0.38 1.95 0.75 0.27 0.27 0.23 0.77 0.65 0.43 0.48 1.69 0.26 1.03 0.74 0.20 0.62 0.50 0.70 0.38 0.34 0.26 0.33 0.54 0.48 0.29 0.25 0.03 0.10 0.16 0.19 0.49 0.13 0.20 0.22 0.28 0.20 0.33 0.24 0.23 1.13 1.85 2.48 2.57 2.63 2.73 2.64 1.58 4.91 2.31 1.98
4.65 3.02 3.23 0.97 2.24 1.09 0.55 1.41 1.43 1.28 0.77 0.97 0.73 0.39 0.39 1.11 1.02 1.12 0.50 1.36 1.08 2.03 2.64 2.28 1.24 0.35 0.27 0.27 0.36 0.34 0.25 0.12 0.12 0.34 0.18 0.10 0.14 0.94 0.97 0.85 0.71 0.81 0.36 0.75 1.65 3.43 2.54 2.28 3.36 1.70 2.97 1.72 2.26 3.60
3.94 3.37 0.31 0.12 0.30 0.22 1.47 1.48 0.33 1.05 1.21 1.55 0.80 1.32 1.37 2.38 1.46 0.66 0.74 0.47 0.46 1.02 0.35 0.31 0.37 0.27 0.25 0.25 0.27 0.24 0.19 0.24 0.24 0.32 0.24 0.20 0.22 0.21 0.53 1.36 0.76 0.58 0.48 0.86 1.48 3.79 3.97 3.92 4.12 2.67 3.29 3.43 3.22 4.01
0.99 0.50 1.98 1.69 1.37 0.63 1.48 1.08 1.24 1.53 0.90 0.39 0.82 1.68 1.76 1.61 1.28 0.80 0.58 0.52 0.61 0.32 0.36 0.31 0.21 0.17 0.29 0.32 0.45 0.50 0.60 0.58 0.74 0.52 0.51 0.53 0.50 0.73 0.70 0.79 0.70 1.63 0.99 2.28 2.86 3.35 2.58 4.17 4.65 4.59 3.98 3.90 4.04 4.00
1.04 0.85 0.65 1.58 0.95 1.20 1.37 1.64 1.46 0.59 0.17 0.57 2.68 1.35 0.73 0.36 0.95 1.27 0.75 0.44 0.52 0.63 1.39 1.32 1.34 1.58 1.14 0.72 0.98 1.37 0.93 1.27 1.09 1.32 1.82 1.94 1.88 1.68 0.93 1.20 1.40 1.95 1.75 3.32 1.86 1.94 2.13 2.97 3.48 3.67 4.05 4.63 4.39 4.84
0.81 0.84 0.98 1.17 1.15 1.15 2.21 1.71 2.14 1.48 0.25 0.60 0.52 0.36 0.35 0.86 1.35 0.54 0.71 1.02 1.41 3.20 4.66 3.82 3.56 4.02 4.77 3.26 2.84 2.04 2.67 3.23 2.25 2.53 3.60 2.47 1.96 1.86 2.22 2.92 2.92 2.87 2.67 5.15 2.95 1.44 2.59 3.27 3.82 5.10 4.40 3.99 3.99 4.54
0.41 1.78 1.48 0.89 1.41 2.81 2.72 3.13 3.15 1.58 1.94 3.63 3.15 3.52 2.18 1.58 1.61 0.71 0.87 1.37 1.91 5.46 5.91 6.33 6.13 6.13 4.98 3.18 5.22 4.59 3.26 4.89 2.01 1.37 1.31 2.11 2.36 3.47 3.61 3.04 3.28 4.72 3.95 3.69 4.68 3.58 2.91 4.02 4.79 4.24 3.11 2.78 2.75 2.74
2.22 3.63 2.90 1.58 2.40 4.41 2.09 5.47 4.25 4.01 5.03 4.73 5.01 4.75 5.05 4.04 2.25 1.62 1.82 3.21 4.08 4.79 2.64 3.78 5.97 2.91 2.63 2.49 3.12 3.11 2.93 1.93 2.02 1.95 1.86 2.58 3.28 3.73 2.26 1.90 4.45 4.61 3.81 4.14 3.42 3.55 2.89 3.66 3.51 3.69 3.36 2.96 2.69 2.42
5.40 3.45 2.20 2.30 4.32 2.47 3.04 3.78 0.95 3.68 3.30 3.97 4.52 3.63 4.12 3.10 1.59 2.44 1.02 2.75 3.77 4.03 3.34 4.53 4.82 5.92 3.12 2.44 2.28 2.40 2.63 2.17 2.68 3.44 3.03 3.04 2.97 2.84 2.81 3.88 4.82 3.66 2.29 3.24 3.59 3.21 2.64 2.09 2.30 2.59 2.65 2.96 2.68 2.46
SL_Ratio
nan nan nan nan nan nan nan nan nan nan nan nan nan nan nan nan nan nan nan nan 2.8 3.5 4.2 nan nan 4.1 5.6 5.7 5.2 3.9 5.3 4.6 3.6 4.6 5.3 5.8 6.5 5.7 6.0 6.3 6.3 5.1 5.3 6.2 6.7 7.3 9.2 nan nan 5.3 4.3 nan nan nan
nan nan nan nan nan nan nan nan nan nan nan nan nan nan nan nan nan nan nan nan nan 3.0 4.5 nan nan nan nan nan nan nan 4.4 3.9 3.3 4.2 5.5 5.9 6.0 5.2 6.2 6.2 5.8 5.3 4.6 5.7 4.5 5.1 nan 2.5 nan nan nan nan nan nan
nan nan nan nan nan nan nan nan nan nan nan nan nan nan nan nan nan nan nan nan 2.4 2.8 3.9 5.0 5.8 nan nan nan nan 4.2 10.0 nan 0.0 nan 4.3 4.1 6.7 5.3 5.6 5.1 5.9 5.9 nan 4.6 4.7 5.0 nan nan nan nan nan nan nan nan
nan nan nan nan nan nan nan nan nan nan nan nan nan nan nan nan nan nan nan nan nan 3.3 5.3 4.4 nan nan nan nan nan nan nan nan nan nan 4.3 4.9 5.4 4.9 4.9 4.7 4.8 3.4 2.7 5.9 5.9 2.7 nan nan nan nan nan nan nan nan
nan nan nan nan nan nan nan nan nan nan nan nan nan nan nan nan nan nan nan nan nan 4.5 5.4 4.5 nan nan nan nan nan nan nan nan 2.5 3.6 4.5 5.8 5.4 5.3 5.4 5.7 5.9 4.0 6.0 4.8 4.1 0.0 nan nan nan nan nan nan nan nan
nan nan nan nan nan nan nan nan nan nan nan nan nan nan nan nan nan nan 2.8 nan nan nan 4.2 6.4 4.2 2.7 nan nan nan nan nan nan 3.3 3.8 5.3 5.6 nan 4.2 4.2 5.9 3.3 nan nan nan 2.2 nan nan nan nan nan nan nan nan nan
nan nan nan nan nan nan nan nan nan nan nan nan nan nan nan nan nan 2.5 4.2 nan nan nan 3.9 5.0 6.1 3.4 2.4 nan 3.0 3.6 3.0 4.0 4.4 4.9 5.4 6.0 5.7 4.1 4.9 4.5 nan nan nan nan nan nan 3.9 nan 2.5 nan nan nan nan nan
nan nan nan nan nan nan nan nan nan nan nan nan nan nan nan nan nan 2.8 nan nan nan 2.8 3.3 5.0 6.4 4.6 0.0 5.4 5.9 5.0 5.5 5.0 4.8 5.8 5.4 5.9 5.5 5.2 4.9 6.7 nan nan nan nan nan nan nan nan nan nan nan nan nan nan
nan nan nan nan nan nan nan nan nan nan nan nan nan nan 2.5 2.5 2.7 2.7 nan nan nan 4.3 4.6 4.9 5.3 5.5 2.9 4.1 4.2 4.2 4.6 5.2 5.4 5.0 5.6 5.2 5.7 5.7 3.4 nan nan nan 3.6 3.3 nan nan nan nan nan nan nan nan nan 3.8
nan nan nan nan nan nan nan nan nan nan nan nan 4.0 2.9 3.5 2.7 nan nan 3.2 3.0 2.9 3.1 3.0 6.2 5.7 5.7 5.4 4.4 4.6 4.5 4.8 5.8 6.1 6.1 5.2 5.3 3.5 nan nan nan nan nan nan nan 5.0 5.9 nan nan nan nan nan 3.3 3.5 3.8
nan nan nan nan nan nan nan nan nan nan nan 3.2 3.4 3.1 2.5 nan 2.6 3.1 4.3 4.3 4.1 4.2 6.1 5.5 5.8 5.6 5.3 4.4 4.7 4.0 4.5 4.2 5.4 5.9 4.8 5.2 5.1 4.8 5.8 6.3 6.4 nan nan nan nan 0.0 nan 3.5 nan 2.5 4.1 4.3 4.3 4.5
nan nan nan nan nan nan nan nan nan nan nan nan 2.7 nan 0.0 3.7 4.0 4.7 4.2 4.1 3.7 6.6 4.6 5.7 5.5 6.0 4.2 4.0 3.9 4.0 4.4 3.3 6.0 4.5 4.0 4.3 4.4 4.2 6.7 5.5 4.4 4.3 3.9 4.5 nan 3.8 4.0 3.9 4.4 4.5 4.8 4.6 4.3 4.1
nan nan nan nan nan nan nan nan nan nan nan nan 3.0 3.6 4.0 3.8 5.7 4.1 3.6 3.6 2.8 4.2 3.5 2.6 2.8 3.1 3.0 nan 3.2 3.4 3.5 3.5 3.2 3.3 3.7 4.6 4.2 4.2 4.4 4.4 4.6 4.2 4.5 4.4 4.6 4.6 4.6 4.7 4.4 4.0 4.7 4.1 4.0 4.5
nan nan nan nan nan nan nan nan nan nan nan 3.0 2.8 5.9 3.1 2.7 3.5 3.7 3.7 3.0 2.8 2.6 2.5 2.5 3.5 3.1 2.8 3.3 2.5 3.2 2.5 3.5 3.7 4.7 4.8 4.6 4.6 4.7 5.0 4.4 5.0 3.9 3.7 3.6 3.8 3.6 3.9 4.2 4.2 4.0 4.0 4.0 4.4 4.8
nan nan nan nan nan nan nan nan nan nan 2.6 3.0 2.8 4.9 3.9 2.7 2.6 2.5 2.5 2.6 2.6 2.5 3.1 3.2 2.9 3.5 3.5 3.3 3.0 2.6 3.1 3.2 3.3 4.5 3.6 3.1 3.6 3.3 3.3 3.2 3.3 3.7 4.0 4.0 3.6 4.3 4.2 4.4 4.4 4.8 4.5 4.6 4.6 5.1
nan nan nan nan nan nan nan nan nan nan 2.5 2.7 2.7 3.4 2.6 2.9 2.7 2.5 2.5 2.7 2.6 3.8 3.1 3.6 3.6 3.5 3.3 3.3 3.5 2.9 3.6 3.6 4.5 3.3 3.1 2.9 3.5 3.1 3.1 3.0 3.2 3.4 3.4 3.7 3.8 4.1 4.4 4.7 4.6 4.9 4.9 4.9 4.9 4.7
nan 5.7 nan nan nan nan nan nan 2.5 3.5 2.6 3.8 3.1 2.5 2.6 2.6 3.2 2.7 2.5 2.6 2.4 4.2 2.6 3.3 4.3 4.6 2.8 3.8 4.7 2.9 3.3 3.4 3.0 3.2 2.9 3.0 3.2 3.2 3.1 3.3 3.8 3.7 3.7 3.9 4.1 4.2 4.5 4.5 4.5 4.8 5.4 5.2 5.0 4.9
5.0 nan nan nan nan nan 2.5 2.5 2.9 3.3 4.1 3.1 3.3 2.9 2.7 2.6 2.5 2.8 2.6 2.5 2.5 2.5 2.9 3.8 3.4 4.4 3.3 4.5 3.6 3.6 3.4 3.1 3.0 3.1 3.1 2.7 2.7 3.2 2.7 3.3 3.3 3.6 3.7 4.2 4.3 4.5 4.6 4.7 4.6 3.9 4.5 4.7 4.5 4.4
nan nan nan nan nan 2.6 2.5 2.5 2.5 3.2 4.0 3.0 2.8 2.8 2.7 2.6 2.5 2.5 2.9 2.5 2.6 nan 3.6 3.4 4.2 4.3 4.1 4.4 3.2 3.0 3.3 3.4 3.7 3.3 3.1 3.0 2.8 3.3 3.5 3.2 3.6 3.9 4.2 4.2 3.7 3.5 3.5 5.0 3.1 3.1 3.3 3.6 3.6 3.9
nan nan nan nan nan 3.5 5.0 2.7 5.0 4.2 3.8 3.2 2.7 2.8 2.8 2.9 2.7 2.5 3.0 3.7 3.3 3.2 4.0 4.1 4.1 4.5 4.2 3.3 2.9 3.3 3.1 3.0 3.2 3.9 3.7 3.3 3.0 3.0 3.2 3.1 3.3 3.4 3.4 3.5 3.3 3.1 3.4 3.4 3.2 3.2 3.3 3.3 3.8 4.2
nan nan nan nan nan nan 2.6 2.7 3.6 3.1 4.1 2.9 2.8 2.5 3.1 2.9 3.3 3.3 2.9 3.5 4.7 5.0 4.9 4.1 3.7 3.8 4.4 4.3 3.9 3.4 3.6 3.2 3.3 2.7 3.1 3.9 3.1 2.8 2.9 2.9 2.9 3.0 3.1 3.3 3.3 3.6 3.4 3.5 3.5 3.2 3.3 3.4 3.4 3.5
7.0 nan 3.1 0.0 4.7 3.6 2.7 nan 2.8 3.3 2.9 4.1 3.5 4.4 3.3 3.1 3.1 3.4 3.8 4.0 4.4 4.2 4.2 4.2 4.1 4.0 4.0 4.5 4.2 5.2 4.6 4.7 4.5 3.0 3.1 2.7 3.3 3.4 3.5 3.3 3.5 3.7 3.3 3.2 3.2 3.4 3.5 3.7 3.4 3.3 3.7 3.9 3.7 3.9
nan 7.0 4.1 5.3 5.5 4.8 4.9 2.5 2.8 2.5 4.0 3.7 2.9 3.8 3.2 3.2 3.8 3.9 4.1 4.2 4.0 4.0 4.2 4.4 4.6 4.4 4.2 4.5 2.9 nan nan nan 2.7 2.8 2.9 2.9 2.8 2.8 3.0 3.1 2.9 3.3 3.6 3.7 3.1 3.1 3.3 3.2 3.4 3.6 3.6 4.1 4.2 4.7
nan 6.2 3.5 3.2 4.5 4.6 4.0 3.1 2.7 2.8 2.7 3.5 3.9 4.4 4.4 3.3 4.6 5.0 5.1 4.7 4.6 4.4 4.7 5.6 4.3 4.0 3.9 4.8 3.4 3.1 2.8 2.5 2.9 3.0 2.7 3.0 3.5 3.6 2.9 2.9 2.8 2.7 2.9 3.0 3.0 3.1 3.3 3.3 3.1 4.0 4.2 4.0 4.0 4.7
6.9 6.1 3.7 8.2 3.2 3.6 3.8 3.7 3.4 4.0 3.9 3.3 4.1 3.6 3.8 4.1 4.7 4.7 5.8 5.2 4.9 4.0 4.6 4.1 4.5 4.7 4.5 4.2 4.4 4.3 5.0 3.0 3.7 4.1 3.3 3.0 3.2 3.2 3.9 3.7 3.8 3.5 3.1 3.1 3.6 3.2 3.4 3.6 3.8 4.0 4.3 4.1 4.7 4.5
7.8 3.7 7.3 3.4 4.0 3.9 4.8 4.8 4.6 4.0 4.0 4.5 4.2 4.1 3.4 4.7 5.6 6.4 6.1 5.1 4.8 4.3 4.2 4.0 4.1 4.7 5.6 5.4 5.5 5.6 5.5 4.1 3.6 3.7 3.9 3.1 3.1 3.5 3.9 4.3 4.6 4.4 3.7 3.0 3.2 3.3 3.5 3.8 4.1 4.5 4.3 4.2 3.4 4.2
8.3 5.0 4.7 3.9 5.4 6.4 4.9 4.1 4.5 4.6 5.4 5.8 4.6 4.4 4.1 6.2 5.8 6.7 5.7 5.2 5.1 4.6 4.6 4.1 4.1 4.4 5.2 5.5 5.1 4.7 4.5 4.7 5.9 5.6 4.7 4.0 4.0 3.4 3.5 3.9 4.3 4.3 3.7 3.3 2.9 2.8 3.2 3.5 3.7 4.2 4.2 4.0 4.1 4.1
5.8 5.3 8.1 4.8 5.3 4.9 5.6 5.4 5.5 6.0 5.5 5.5 5.3 6.2 5.9 5.8 7.4 5.8 5.8 4.6 4.3 3.9 3.9 3.9 4.0 4.3 4.8 4.8 4.7 4.6 4.4 4.6 4.7 4.8 4.9 5.1 5.0 4.4 4.5 4.3 4.3 3.0 3.6 3.2 3.0 3.0 3.3 3.2 3.6 3.7 3.9 4.2 4.5 4.2
5.4 4.0 4.6 8.5 6.5 6.2 6.0 6.2 6.5 5.8 4.9 4.4 5.2 6.4 5.5 5.4 5.5 5.7 5.6 5.0 4.0 4.5 5.4 5.6 5.4 4.6 5.2 4.9 4.6 4.4 4.7 4.8 5.1 5.8 5.3 6.0 5.7 5.8 4.8 4.6 4.6 4.4 4.2 4.0 3.0 3.2 3.4 3.5 3.6 3.8 3.6 4.1 4.2 4.2
5.3 3.5 5.3 5.6 8.9 7.9 5.5 5.6 4.6 4.5 6.4 5.0 5.2 6.8 7.1 6.6 6.0 5.4 5.4 5.8 6.1 5.6 4.8 4.7 4.8 4.7 5.1 5.4 5.8 5.5 4.4 4.2 4.5 4.6 4.9 5.7 5.3 5.1 4.8 4.8 4.6 4.6 4.4 3.9 4.7 5.2 3.3 4.2 3.7 4.3 4.8 5.4 5.1 5.2
4.7 4.0 4.8 4.5 5.4 4.5 4.7 4.5 4.3 5.0 5.3 5.1 4.8 5.2 5.7 6.4 6.4 6.1 6.5 6.7 6.4 4.9 4.8 5.0 5.0 4.5 5.1 5.8 5.0 5.2 6.3 4.8 5.5 5.8 5.9 5.7 5.3 5.0 4.8 5.0 4.7 4.4 4.4 4.6 4.9 5.3 5.6 5.4 4.9 4.9 5.4 5.6 5.9 6.1
5.0 4.9 6.6 8.1 5.4 4.5 4.3 4.7 5.0 5.6 4.7 5.5 5.8 5.5 5.5 6.0 6.9 7.4 6.3 6.9 6.6 6.1 3.3 5.3 5.1 6.5 5.8 5.4 5.1 5.1 3.1 6.2 6.4 6.4 5.4 5.9 5.7 5.7 5.8 6.0 5.0 5.0 5.2 5.2 5.5 5.7 5.5 5.6 5.8 5.6 6.4 6.1 6.2 6.6
4.6 4.8 5.5 5.9 5.3 4.9 5.1 4.9 5.6 5.5 6.5 6.3 6.1 6.4 6.1 6.5 8.3 6.6 7.1 6.2 6.3 6.2 6.7 5.8 5.7 5.2 6.1 5.6 6.1 6.2 3.9 6.4 4.9 3.0 3.0 3.0 3.0 3.5 6.0 5.5 5.2 5.7 6.0 5.9 5.6 5.8 6.0 6.1 7.7 6.3 6.7 6.8 6.8 6.8